Regional Weather Roundup
Issued by NWS

Home | Current Version | Previous Version | Text Only | Print | Product List | Glossary Off
Versions: 1 2 3 4 5 6 7 8 9 10 11 12 13 14 15 16 17 18 19 20 21 22 23 24 25 26 27 28 29 30 31 32 33 34 35 36 37 38 39 40 41 42 43 44 45 46 47 48 49 50

000
ASUS43 KFSD 260802
RWRSD

WEATHER ROUNDUP FOR SOUTH DAKOTA
NATIONAL WEATHER SERVICE SIOUX FALLS SD
300 AM CDT SAT JUL 26 2014

NOTE: "FAIR" INDICATES FEW OR NO CLOUDS BELOW 12,000 FEET WITH NO
SIGNIFICANT WEATHER AND/OR OBSTRUCTIONS TO VISIBILITY.


SDZ001>005-009-010-012>017-260900-
NORTHWEST AND NORTH CENTRAL SOUTH DAKOTA

CITY           SKY/WX    TMP DP  RH WIND       PRES   REMARKS
BUFFALO          N/A     62  49  62 W8        29.84S
FAITH            N/A     62  51  67 W3        29.86R
MOBRIDGE       PTCLDY    66  65  96 SE7       29.77F
$$

SDZ012>016-024>037-041>051-057-063-072>074-260900-
SOUTHWEST AND SOUTH CENTRAL SOUTH DAKOTA

CITY           SKY/WX    TMP DP  RH WIND       PRES   REMARKS
RAPID CTY ARPT CLEAR     60  51  72 N8        29.88F
PIERRE         MOCLDY    70  68  93 NE9       29.81S
CUSTER         CLEAR     60  46  59 NW5       30.02F
ELLSWORTH AFB  CLEAR     63  54  72 N6        29.89F
PHILIP         CLEAR     68  60  75 NE8       29.82S
PINE RIDGE     CLEAR     65  57  75 E7        29.85S
WINNER         FAIR      71  66  84 SE10      29.82S
$$

SDZ004>011-016>023-039-040-260900-
NORTHEAST SOUTH DAKOTA

CITY           SKY/WX    TMP DP  RH WIND       PRES   REMARKS
ABERDEEN       PTCLDY    56  56 100 CALM      29.82F
WATERTOWN      CLEAR     63  63 100 CALM      29.85F FOG
SISSETON         N/A     59  58  96 W6        29.81F
$$

SDZ017-020-022-023-036>040-048>070-260900-
SOUTHEAST SOUTH DAKOTA

CITY           SKY/WX    TMP DP  RH WIND       PRES   REMARKS
SIOUX FALLS    PTCLDY    71  69  93 NE5       29.83F
HURON          LGT RAIN  68  65  90 E12       29.78F
CHAMBERLAIN    MOCLDY    68  65  91 SE9       29.79F
MITCHELL       MOCLDY    69  67  93 N6        29.84S
YANKTON        PTCLDY    70  70 100 NE3       29.81F
$$

ABBREVIATIONS USED IN REMARKS
   TC - TEMPERATURE IN CELSIUS
  WCI - WIND CHILL INDEX
   HX - HEAT INDEX
  VSB - VISIBILITY



USA.gov is the U.S. government's official web portal to all federal, state and local government web resources and services.